This is the latest recevied weather packets stored in our database for station/object DO6MJ-1. If no packets are shown the sender has not sent any weather packets the latest 10 day(s).
| Time | Temp. | Humidity | Pressure | Rain* | Wind** | Luminosity | Snow |
|---|---|---|---|---|---|---|---|
| 1778063006 | 8.89° C | 94% | 999.6 hPa | 1.02 mm | - | - | - |
| 1778061805 | 8.33° C | 94% | 999.6 hPa | 1.02 mm | - | - | - |
| 1778060605 | 8.33° C | 95% | 999.4 hPa | 1.52 mm | - | - | - |
| 1778059405 | 8.33° C | 95% | 999.4 hPa | 1.52 mm | - | - | - |
| 1778058207 | 7.78° C | 95% | 999.5 hPa | 1.52 mm | - | - | - |
| 1778057004 | 7.78° C | 95% | 999.2 hPa | 1.52 mm | - | - | - |
| 1778055804 | 7.22° C | 94% | 999.2 hPa | 1.52 mm | - | - | - |
| 1778054604 | 7.22° C | 94% | 999.3 hPa | 1.52 mm | - | - | - |
| 1778053404 | 7.22° C | 94% | 999.2 hPa | 1.52 mm | - | - | - |
| 1778052203 | 7.22° C | 94% | 998.9 hPa | 1.52 mm | - | - | - |
| 1778051003 | 7.22° C | 94% | 999.1 hPa | 2.03 mm | - | - | - |
| 1778049803 | 7.22° C | 94% | 999 hPa | 2.03 mm | - | - | - |
| 1778048602 | 7.22° C | 94% | 998.8 hPa | 2.03 mm | - | - | - |
| 1778047403 | 7.22° C | 94% | 998.8 hPa | 2.03 mm | - | - | - |
| 1778046202 | 7.22° C | 94% | 998.7 hPa | 2.03 mm | - | - | - |
| 1778045001 | 7.78° C | 94% | 998.8 hPa | 2.03 mm | - | - | - |
| 1778043801 | 7.78° C | 94% | 998.9 hPa | 2.03 mm | - | - | - |
| 1778042601 | 7.78° C | 94% | 998.8 hPa | 2.03 mm | - | - | - |
| 1778041401 | 8.33° C | 93% | 998.9 hPa | 2.03 mm | - | - | - |
| 1778040200 | 8.33° C | 93% | 998.9 hPa | 1.52 mm | - | - | - |
| 1778039000 | 8.33° C | 93% | 999 hPa | 1.52 mm | - | - | - |
| 1778037800 | 8.33° C | 93% | 999.1 hPa | 1.52 mm | - | - | - |
| 1778036600 | 8.33° C | 92% | 999.1 hPa | 1.02 mm | - | - | - |
| 1778035399 | 8.89° C | 92% | 999.1 hPa | 0.51 mm | - | - | - |
| 1778034199 | 8.89° C | 91% | 999.4 hPa | 0 mm | - | - | - |
* Rain latest hour (hover to see other rain measurements)
** Current wind speed in m/s (hover to see current wind gust speed)